Retour au catalogue

CELESTIS 02/TAURUS R/B

ActifLEO
NORAD 25160·ROCKET BODY·🇺🇸 United States

Lancé Feb 10, 1998 depuis Vandenberg Space Force Base

Loading…

Prochains Passages (prochaines 24 heures)

TLE

FraisSource: Space-Track

Époque: Sep 14, 2026, 21:55 UTC

1 25160U 98007D   26257.91320697 -.00000025  00000-0  46024-4 0  9995
2 25160 108.0056 153.5170 0062797 338.3777  91.7902 14.22505349483274

Suivez CELESTIS 02/TAURUS R/B en temps réel avec AllMySat

Download on the App Store